Terminal Aerodrome Forecast
Issued by NWS Binghamton, NY

Current Version | Previous Version | Text Only | Print | Product List | Glossary On
Versions: 1 2 3 4 5 6 7 8 9 10 11 12 13 14 15 16 17
000
FTUS41 KBGM 032322
TAFAVP
TAF
KAVP 032322Z 0400/0424 VRB05KT P6SM BKN035 OVC250
     FM040400 13008KT P6SM SCT025 BKN035 OVC100
      TEMPO 0405/0409 6SM -SHRA BKN025
     FM041000 16005KT 5SM -RA BR OVC040
     FM041300 15004KT P6SM BKN050 OVC120=

USA.gov is the U.S. government's official web portal to all federal, state and local government web resources and services.